Location: Gorze? G�rny
(49.8500°N, 19.5000°E)
Time: 05:23:30
(UTC+00:00)

SL-08 R/B - Pass Details

Date: 13 May 2021
Orbit: 951 x 1017 km, 82.9° (Epoch: 20 June)

Event Time Altitude Azimuth Distance (km) Brightness Sun altitude
Rises 21:58:15 0° 349° (N) 3,664 9.1 -21.0°
Reaches altitude 10° 22:00:44 10° 349° (N) 2,721 8.0 -21.0°
Maximum altitude 22:06:58 83° 264° (W) 994 4.5 -21.2°
Enters shadow 22:09:29 40° 180° (S) 1,426 4.8 -21.2°
